Location: Lake Lucerne
(45.5315°N, 88.8489°W)
Time: 02:58:45
(UTC-05:00)

Envisat - Visible Passes

Search period start: 22 October 2018 00:00
Search period end: 01 November 2018 00:00
Orbit: 764 x 766 km, 98.2° (Epoch: 22 October)

Date Brightness Start Highest point End Pass type
(mag) Time Alt. Az. Time Alt. Az. Time Alt. Az.
22 Oct 3.9 18:44:41 10° ESE 18:48:51 26° ENE 18:53:02 10° N visible
22 Oct 4.1 20:22:49 10° S 20:27:39 44° W 20:32:30 10° NNW visible
23 Oct 2.9 19:45:45 10° SSE 19:50:49 88° ENE 19:55:57 10° NNW visible
23 Oct 5.9 21:28:35 10° WSW 21:30:32 12° W 21:32:30 10° WNW visible
24 Oct 3.3 19:09:26 10° SE 19:14:12 42° ENE 19:18:59 10° N visible
24 Oct 5.0 20:49:09 10° SSW 20:53:22 26° W 20:57:37 10° NW visible
25 Oct 4.2 18:33:58 10° ESE 18:37:46 22° ENE 18:41:35 10° NNE visible
25 Oct 3.6 20:11:27 10° S 20:16:25 55° W 20:21:25 10° NNW visible
26 Oct 2.9 19:34:36 10° SSE 19:39:39 71° ENE 19:44:44 10° N visible
26 Oct 5.7 21:16:15 10° SW 21:19:12 15° W 21:22:11 10° NW visible
27 Oct 3.6 18:58:32 10° SE 19:03:06 35° ENE 19:07:40 10° N visible
27 Oct 4.6 20:37:34 10° SSW 20:42:06 32° W 20:46:39 10° NNW visible
28 Oct 4.4 18:23:22 10° ESE 18:26:43 18° ENE 18:30:04 10° NNE visible
28 Oct 3.2 20:00:09 10° S 20:05:12 69° WSW 20:10:18 10° NNW visible
29 Oct 3.0 19:23:32 10° SSE 19:28:30 57° ENE 19:33:29 10° N visible
29 Oct 5.4 21:04:18 10° SW 21:07:54 19° W 21:11:30 10° NW visible
30 Oct 3.8 18:47:42 10° ESE 18:51:59 28° ENE 18:56:18 10° N visible
30 Oct 4.2 20:26:06 10° SSW 20:30:50 40° W 20:35:38 10° NNW visible
31 Oct 4.6 18:12:56 10° E 18:15:41 15° ENE 18:18:26 10° NNE visible
31 Oct 2.9 19:48:56 10° SSE 19:54:00 85° WSW 19:59:08 10° NNW visible
31 Oct 6.0 21:32:28 10° WSW 21:33:47 11° W 21:35:06 10° WNW visible
